Farmington, MO

8:00 PM CST on November 21, 2019 (GMT -0600)
Farmington Regional

Weather History for KFAM - June, 2019

Change the Weather History Date:

Thursday, June 6, 2019

  Actual Average Record
Temperature  
Mean Temperature 71 °F -  
Max Temperature 79 °F 77 °F 91 °F (2011)
Min Temperature 64 °F 59 °F 46 °F (1998)
Cooling Degree Days 6    
Growing Degree Days 21 (Base 50)    
Moisture  
Dew Point 68 °F    
Average Humidity 85    
Maximum Humidity 100    
Minimum Humidity 74    
Precipitation  
Precipitation 0.01 in - - ()
Sea Level Pressure  
Sea Level Pressure 29.82 in    
Wind  
Wind Speed 3 mph (ENE)    
Max Wind Speed 9 mph    
Max Gust Speed -    
Visibility 10 miles    
Events Rain    
Averages and records for this station are not official NWS values.
T = Trace of Precipitation, MM = Missing Value Source: NWS Daily Summary

Daily Weather History Graph

Daily Weather History Graph

Search for Another Location

Airport or City:

Astronomy

Jun. 06, 2019 Rise Set
Actual Time 5:40 AM CDT 8:20 PM CDT
Civil Twilight 5:09 AM CDT 8:51 PM CDT
Nautical Twilight 4:30 AM CDT 9:30 PM CDT
Astronomical Twilight 3:47 AM CDT 10:14 PM CDT
Moon 8:48 AM CDT (6/6) 11:39 PM CDT (6/6)
Length of Visible Light 15h 42m
Length of Day
14h 40m
Waxing Crescent, 14% of the Moon is Illuminated
Jun 6
Waxing Crescent
Jun 10
First Quarter
Jun 17
Full
Jun 25
Last Quarter
Jul 2
New

Hourly Weather History & Observations

Time (CDT) Temp. Dew Point Humidity Pressure Visibility Wind Dir Wind Speed Gust Speed Precip Events Conditions
12:56 AM 64.9 °F 64.0 °F 97% 29.86 in 10.0 mi Calm Calm - N/A   Clear
1:56 AM 64.9 °F 64.0 °F 97% 29.83 in 10.0 mi West 3.5 mph - N/A   Clear
2:56 AM 64.9 °F 64.0 °F 97% 29.78 in 10.0 mi Calm Calm - N/A   Clear
3:56 AM 64.9 °F 64.9 °F 100% 29.79 in 10.0 mi NNE 3.5 mph - 0.00 in Rain Light Rain
4:56 AM 64.9 °F 64.0 °F 97% 29.80 in 10.0 mi WSW 5.8 mph - 0.01 in Rain Light Rain
6:56 AM 64.9 °F 64.9 °F 100% 29.82 in 10.0 mi Calm Calm - N/A   Clear
7:56 AM 66.9 °F 64.9 °F 93% 29.84 in 10.0 mi Calm Calm - N/A   Clear
8:56 AM 68.0 °F 64.9 °F 90% 29.86 in 10.0 mi Calm Calm - N/A   Clear
9:56 AM 71.1 °F 66.0 °F 84% 29.85 in 10.0 mi Variable 4.6 mph - N/A   Clear
10:56 AM 73.9 °F 66.9 °F 79% 29.86 in 10.0 mi Calm Calm - N/A   Clear
11:56 AM 75.0 °F 68.0 °F 79% 29.85 in 10.0 mi ENE 6.9 mph - N/A   Partly Cloudy
12:42 PM 75.2 °F 68.0 °F 78% 29.87 in 10.0 mi East 6.9 mph - N/A   Mostly Cloudy
12:56 PM 75.9 °F 66.9 °F 74% 29.85 in 10.0 mi ESE 6.9 mph - N/A   Scattered Clouds
1:56 PM 77.0 °F 69.1 °F 76% 29.83 in 10.0 mi ESE 5.8 mph - N/A   Clear
2:38 PM 78.8 °F 69.8 °F 74% 29.84 in 10.0 mi ENE 6.9 mph - N/A   Mostly Cloudy
2:56 PM 78.1 °F 70.0 °F 76% 29.82 in 10.0 mi East 4.6 mph - N/A   Mostly Cloudy
3:56 PM 78.1 °F 70.0 °F 76% 29.80 in 10.0 mi North 4.6 mph - N/A   Mostly Cloudy
4:32 PM 78.8 °F 71.6 °F 78% 29.81 in 10.0 mi ENE 5.8 mph - N/A   Scattered Clouds
4:56 PM 78.1 °F 71.1 °F 79% 29.79 in 10.0 mi NE 5.8 mph - N/A   Mostly Cloudy
5:34 PM 78.8 °F 71.6 °F 78% 29.80 in 10.0 mi East 6.9 mph - N/A   Scattered Clouds
5:56 PM 77.0 °F 70.0 °F 79% 29.79 in 10.0 mi ENE 9.2 mph - N/A   Partly Cloudy
6:10 PM 77.0 °F 69.8 °F 78% 29.81 in 10.0 mi ENE 6.9 mph - N/A   Mostly Cloudy
6:22 PM 77.0 °F 69.8 °F 78% 29.80 in 10.0 mi ENE 6.9 mph - N/A   Scattered Clouds
6:56 PM 75.9 °F 69.1 °F 79% 29.78 in 10.0 mi ENE 5.8 mph - N/A   Clear
7:56 PM 75.0 °F 70.0 °F 84% 29.79 in 10.0 mi NE 3.5 mph - N/A   Clear
8:56 PM 73.9 °F 70.0 °F 87% 29.79 in 10.0 mi Calm Calm - N/A   Clear
9:56 PM 72.0 °F 70.0 °F 93% 29.80 in 10.0 mi NE 3.5 mph - N/A   Clear
11:56 PM 72.0 °F 69.1 °F 91% 29.78 in 10.0 mi Calm Calm - N/A   Clear